Location: Alsip
(41.6689°N, 87.7387°W)
Time: 15:13:22
(UTC+00:00)

Okean 1 - Pass Details

Date: 14 July 2020
Orbit: 538 x 555 km, 82.5° (Epoch: 13 August)

Event Time Altitude Azimuth Distance (km) Brightness Sun altitude
Rises 06:40:34 0° 357° (N) 2,705 8.1 -25.9°
Reaches altitude 10° 06:42:47 10° 3° (N) 1,810 7.0 -25.9°
Enters shadow 06:46:12 46° 55° (NE) 736 4.1 -25.7°
